Location: Peterborough
(44.3091°N, 78.3197°W)
Time: 03:57:03
(UTC-04:00)

S-56A Canister/Altair - Pass Details

Date: 30 March 2023
Orbit: 639 x 2492 km, 38.9° (Epoch: 08 June)

Event Time Altitude Azimuth Distance (km) Brightness Sun altitude
Rises 17:07:07 0° 205° (SSW) 4,094 11.9 25.7°
Reaches altitude 10° 17:10:01 10° 194° (SSW) 3,380 11.4 25.2°
Maximum altitude 17:17:21 30° 138° (SE) 2,737 10.3 23.9°
Drops below altitude 10° 17:27:14 10° 85° (E) 4,640 11.0 22.3°
Sets 17:32:00 0° 76° (ENE) 5,877 11.4 21.4°
